パンスターズ彗星

P/2016 J1 ( PanSTARRS )

English version
Home page
Updated on March 25, 2017

---------------------------------------------------------------------

・ プロフィール

発見日 2016年5月5日
発見光度 21.4等
発見者 Pan-STARRS 1 telescope (Haleakala)

・ 写真集

・ 軌道要素

P/2016 J1-A (PANSTARRS)
Epoch 2016 June 21.0 TT = JDT 2457560.5
T 2016 June 24.12933 TT                                 MPCW
q   2.4480390            (2000.0)            P               Q
n   0.17446350     Peri.   46.55993     -0.40774206     +0.90921798
a   3.1719987      Node   199.85768     -0.89285143     -0.41629018
e   0.2282346      Incl.   14.33063     -0.19121384     +0.00501467
P   5.65
From 23 observations 2016 May 15-Aug. 4, mean residual 0".0.

P/2016 J1-B (PANSTARRS)
Epoch 2016 June 21.0 TT = JDT 2457560.5
T 2016 June 23.79780 TT                                 MPCW
q   2.4481810            (2000.0)            P               Q
n   0.17448792     Peri.   46.48020     -0.40895778     +0.90866935
a   3.1717027      Node   199.86098     -0.89229785     -0.41748892
e   0.2281177      Incl.   14.33291     -0.19120167     +0.00479632
P   5.65
From 27 observations 2016 May 15-Aug. 4, mean residual 0".1.

・ 光度変化

        A核
        m1 = 16.5 + 5 logΔ + 10.0 log r

        B核
        m1 = 17.0 + 5 logΔ + 10.0 log r

---------------------------------------------------------------------

軌道要素はM.P.E.C. 2017-A77に掲載されたものです。
光度グラフはComet for Windowsで作成したものです。

---------------------------------------------------------------------

Copyright(C) Seiichi Yoshida (comet@aerith.net). All rights reserved.